Погода в Арсеньеве

Россия / Хабаровский край     49°12′56″N   137°04′31″E
темп.,
°C
ветер,
м/с
пор.,
м/с
влажн.,
%
обл.,
%
осадки,
мм/ч
давл.,
гПа
погр.,
м
16 мая, вс
вс1601:00+10юз616904 0.1 999734
04:00+10юз7168551 0.1 9981007
07:00+10юз8167833 0.0 9991529
10:00+14зюз8136544 0.4 9991752
13:00+16зюз7135568 0.9 9991911
16:00+17зюз6135287 1.4 9992153
19:00+16з375776 0.1 999574
22:00+11ююз35766 0.1 100073
17 мая, пн
пн1701:00+8ююз22831 0.0 100135
04:00+7ю22870 0.0 100131
07:00+10ююз23730 0.0 1002161
10:00+17зюз34480 0.0 1001815
13:00+21зюз46340 0.0 10001682
16:00+22зюз58293 0.0 9992626
19:00+20юз410414 0.0 999686
22:00+14ююз311605 0.0 1000209
18 мая, вт
вт1801:00+13ююз3126445 0.0 1000288
04:00+11ю3106877 0.0 1001215
07:00+15ююз313560 0.0 1000698
10:00+22ююз71440100 0.0 9981383
13:00+26юз8163316 0.0 9973122
16:00+26юз71632100 0.0 9962666
19:00+24юз8163646 0.0 9961662
22:00+15св128047 0.4 99953
19 мая, ср
ср1901:00+14ююз31188100 1.1 1000331
04:00+13ююз3986100 1.3 1002321
07:00+12юз3983100 0.0 1005579
10:00+17юз5743100 0.0 10061099
13:00+20з472510 0.0 10052102
16:00+21зюз4828100 0.0 10042030
19:00+19юз384445 0.0 10051137
22:00+13юв117110 0.0 100811
20 мая, чт
чт2001:00+11в11860 0.0 100912
04:00+10вюв229011 0.0 100916
07:00+14вюв237482 0.1 1008115
10:00+22юз5104438 0.1 10051686
13:00+26юз7123835 0.0 10031951
16:00+28зюз7153925 0.0 10012845
19:00+24юз51249100 0.0 10021428
22:00+19ююз3106690 0.0 1003194